Погода Благодарный

Погода Благодарный : погода сейчас, прогноз погоды и архив. Всё, что Вы хотите узнать о погоде Благодарный!

Поиск расширенной информации на нашем сайте:

Другие новости

Новости СМИ2

Главная страница сайта

Новости сайта

02.10.2013

Напоминаем, что на нашем новом сайте вы можете получить высокодетализированные прогнозы погоды по пунктам России, СНГ и мира (включающие важные для авиации метеовеличины, такие как направление и скорость ветра, видимость, явления погоды, количество и форма облачности, нижняя и верхняя граница облачности), а также ознакомиться с разнообразными материалами по авиационной метеорологии и подборкой полезных ссылок на эту тему.

Сайт Метеоцентр.Азия посвящён разработке технологий оптимизации авиаметеорологического обслуживания, включая проектирование и перспективное создание нескольких автоматизированных авиаметеорологических систем:
- система выпуска высокодетальных прогностических карт явлений погоды для нижнего воздушного пространства по России и ближнему зарубежью;
- система верификации прогнозов TAF (выпускаемых синоптиками официальных АМСГ РФ и ближнего зарубежья) и AUTOTAF (выпускаемых сайтом Метеоцентр.Азия) - выявление ошибок, онлайн-сопоставление с фактической погодой METAR, автоматическое внесение коррективов в прогнозы при резком отклонении фактической погоды от прогноза, подсчёт оправдываемости прогнозов по элементам и в целом;
- система обработки, анализа и отображения авиаметеорологической информации для применения провайдерами метеорологической информации.


Погода Благодарный - сегодня

Время (UTC), дата Ветер
(°,м/с) 
Видим.   Явления Облачность Т
(°С)
Тd
(°С)
f(%) Тe
(°С)
Pmin
(гПа)
dP
(гПа)
Po
(мм)
O2
(г/м3)
Тmin Tmax R s Состояние
почвы
00 20.04.17 270 (З) 3{11}  20000 м    ясно 
+5.4 +0.9 73 +4  1021.3  1.2  751  297           
03 20.04.17 250 (З) 20000 м    ясно 
+5 +0.4 72 +4  1021.9  0.5  751  297  +4.7        сухая 
06 20.04.17 280 (З) 20000 м    10/10 600 м 
[Sc]
+7.9 +1.3 63 +7  1022.1  0.4  752  294           
09 20.04.17 280 (З) 20000 м    3/0 верхняя 
[Ci fib]
+11.4 +2.4 54 +12  1020.7  -1.1  751  290           
12 20.04.17 010 (С) 20000 м    3/0 верхняя 
[Ci fib]
+14.2 +3.2 47 +15  1018.9  -1.6  750  287           
15 20.04.17 040 (СВ) 20000 м    4/0 верхняя 
[Ci fib]
+12.1 +3.8 57 +11  1018.5  -0.5  749  289    +14.3       
18 20.04.17 080 (В) 20000 м    ясно 
+5.8 +2.2 78 +6  1019.9  750  296           
21 20.04.17 090 (В) 20000 м    ясно 
+5.1 +2.2 82 +4  1018.5  -1.4  749  296           
00 21.04.17 090 (В) 20000 м    ясно 
+3.9 +1.9 87 +3  1016.9  -1.7  748  297           
03 21.04.17 080 (В) 20000 м    10/10 600 м 
[Sc]
+4.5 +2.6 87 +3  1015.5  -1.3  747  296  +3.4        сухая 
06 21.04.17 120 (ЮВ) 20000 м    10/10 600 м 
[Sc]
+11.4 +4.3 62 +10  1013.5  -1.4  746  288           
09 21.04.17 110 (В) 3{11}  20000 м    10/10 600 м 
[Sc]
+12.8 +4.5 57 +13  1014.1  0.6  746  286           
12 21.04.17 120 (ЮВ) 20000 м    10/10 600 м 
[Sc]
+14.3 +4.8 53 +15  1012.4  -1.5  745  284           
15 21.04.17 270 (З) 20000 м    10/10 600 м 
[Sc]
+14.4 +5.7 56 +15  1011  -1.5  744  284    +15.4       
18 21.04.17 290 (З) 5{12}  10 км  слаб. ливневой дождь  10/10 600 м кучево-дожд. 
[Cb cap]
+9 +5.7 80 +8  1013.4  1.9  745  290           
21 21.04.17 290 (З) 5-10{12}  10 км  слаб. ливневой дождь  10/10 600 м кучево-дожд. 
[Cb cap]
+5.3 +3.4 88 +3  1015  1.4  746  294           
00 22.04.17 290 (З) 1{10}  10 км  слаб. ливневой дождь  10/10 600 м кучево-дожд. 
[Cb cap]
+4 +2.7 91 +5  1014.5  -0.6  746  296           
03 22.04.17 200 (Ю) 20000 м    10/10 600 м 
[Sc]
+4.5 +3.3 92 +4  1013.7  -0.7  745  295  +3.7      влажная 
06 22.04.17 230 (ЮЗ) 20000 м  {ливн. осадки}  10/10 600 м 
[Sc]
+7.5 +3.4 75 +7  1014.1  0.6  746  292           
09 22.04.17 260 (З) 7-16{16}  20000 м    9/9 600 м 
[Sc]
+12.1 +0.8 46 +11  1014.2  0.6  746  288           
12 22.04.17 270 (З) 14-20{20}  20000 м    3/3 600 м 
+11.7 +1 48 +9  1015.9  1.4  747  289           
15 22.04.17 270 (З) 4-11{19}  20000 м    ясно 
+10.3 -0.8 46 +9  1017.9  0.6  749  291    +12.1       
18 22.04.17 280 (З) 2{13}  20000 м    ясно 
+7.3 -0.1 59 +7  1018.6  0.5  749  294           
21 22.04.17 тихо ()   20000 м    ясно 
+5.9 +1.2 72 +6  1019.6  0.8  750  295           
00 23.04.17 тихо ()   20000 м    9/9 600 м 
[Sc]
+6.3 +1.9 73 +6  1018  -1.5  749  295           
Время (UTC), дата Ветер
(°,м/с) 
Видим.   Явления Облачность Т
(°С)
Тd
(°С)
f(%) Тe
(°С)
Pmin
(гПа)
dP
(гПа)
Po
(мм)
O2
(г/м3)
Тmin Tmax R s Состояние
почвы

Для получения пояснительной информации подведите курсор к названию столбца.

ПОГОДА Благодарный - архив

Всё, что Вы хотите узнать о погоде Благодарный - удобно и подробно!

Выберите нужную дату (начиная с 1 января 2015* года) и нажмите кнопку "Найти".
Будут отображены архивные сводки погоды по пункту Благодарный, начиная с указанной даты.


Отображать данные в формате CSV (для использования в таблицах Excel)


Внимание! Наш архив погоды предназначен исключительно для личного некоммерческого использования в познавательных целях. Если Вам необходимы официальные справки о состоянии погоды (для производственных, юридических, коммерческих и т.п. целей), обращайтесь в органы Росгидромета.

*Примечание: данная дата относится к архиву по метеостанциям СССР (Россия, СНГ, Балтия).
Архив по метеостанциям Зарубежной Европы и Азии (кроме Китая) хранится 10 дней, по другим регионам земного шара (Китай, Африка, Америка, Австралия, Океания) - 1 день.

Благодарный - район местоположения метеостанции


Название, широта, долгота, высота метеостанции:
Благодарный 45.1°ш. 43.4°д. 162 м над ур. моря [Российская Федерация]

Дополнительная информация

В oтличие oт бoльшинства пoгoдных сайтoв мы публикуем пoдрoбную метеoинфoрмацию в детальнoм прoфессиoнальнoм фoрмате.

Характеристики температуры и влажнoсти вoздуха измеряются на высoте 2 м в тени вдали oт зданий и деревьев.
Скoрoсть ветра измеряется на высoте 10 м (на урoвне рoста челoвека скoрoсть ветра ниже в 1.5-2 раза). Если метеoстанция нахoдится в гoрoде или в лесу, тo скoрoсть ветра занижена на 2-4 м/с пo сравнению с oткрытым местoм. Скoрoсть ветра над акватoриями крупных рек и oзёр, а также на вершинах хoлмoв на 2-5 м/с выше, чем в oбычных услoвиях.
Атмoсфернoе давление в разных тoчках местнoсти мoжет значительнo oтличаться oт давления на метеoстанции, в зависимoсти oт услoвий рельефа (при пoдъёме на 10 м давление пoнижается примернo на 1 мм рт.ст.).